SXS4TK EDDH-LTAI

Flight info

Callsign SXS4TK
Flight time N/A
Altitude 33000
Route RAMAR6B/23 RAMAR DCT PABMI DCT RADEL DCT GERGA DCT SUBIX L867 REGLI DCT REVMA DCT PITOK DCT VIKBI DCT ADORU UG80 EKI UL606 CRD UL854 KOZLU
Aircraft B738/M-SDE2E3FGHIRWXY/LB1

Departure

Time N/A
Airport Hamburg Helmut Schmidt Airport (EDDH)

Arrival

Time 2026-05-03 22:23
Airport Antalya International Airport (LTAI)
Time Latitude Longitude Altitude Speed Heading
2026-05-03 20:15 49.28053 19.01737 35137 ft 471 kts 135°
2026-05-03 20:15 49.23295 19.08657 35135 ft 472 kts 135°
2026-05-03 20:16 49.18529 19.15568 35135 ft 472 kts 135°
2026-05-03 20:16 49.13757 19.22474 35142 ft 473 kts 135°
2026-05-03 20:17 49.08980 19.29365 35140 ft 472 kts 135°
2026-05-03 20:17 49.04203 19.36239 35157 ft 471 kts 135°
2026-05-03 20:18 48.99462 19.43044 35141 ft 471 kts 135°
2026-05-03 20:18 48.94694 19.49866 35155 ft 470 kts 135°
2026-05-03 20:19 48.89919 19.56680 35148 ft 470 kts 135°
2026-05-03 20:19 48.85152 19.63465 35165 ft 469 kts 134°
2026-05-03 20:20 48.80384 19.70232 35150 ft 469 kts 134°
2026-05-03 20:20 48.75609 19.76991 35158 ft 469 kts 134°
2026-05-03 20:21 48.70834 19.83732 35151 ft 469 kts 134°
2026-05-03 20:21 48.66051 19.90465 35137 ft 469 kts 135°
2026-05-03 20:22 48.61264 19.97185 35152 ft 470 kts 134°
2026-05-03 20:22 48.56500 20.03856 35142 ft 470 kts 134°
2026-05-03 20:23 48.51703 20.10556 35139 ft 470 kts 134°
2026-05-03 20:23 48.46895 20.17252 35139 ft 470 kts 134°
2026-05-03 20:24 48.42082 20.23938 35152 ft 470 kts 134°
2026-05-03 20:24 48.37273 20.30603 35142 ft 470 kts 134°
2026-05-03 20:25 48.32456 20.37249 35134 ft 470 kts 135°
2026-05-03 20:25 48.27360 20.43452 35142 ft 472 kts 140°
2026-05-03 20:26 48.22109 20.49361 35137 ft 472 kts 140°
2026-05-03 20:26 48.16858 20.55280 35148 ft 472 kts 140°
2026-05-03 20:27 48.11635 20.61237 35138 ft 472 kts 140°
2026-05-03 20:27 48.06451 20.67175 35136 ft 472 kts 140°
2026-05-03 20:28 48.01239 20.73135 35134 ft 471 kts 140°
2026-05-03 20:28 47.95994 20.79116 35154 ft 471 kts 140°
2026-05-03 20:29 47.90813 20.85006 35139 ft 471 kts 140°
2026-05-03 20:29 47.85602 20.90913 35136 ft 471 kts 140°
2026-05-03 20:30 47.80383 20.96814 35137 ft 470 kts 140°
2026-05-03 20:30 47.75168 21.02695 35138 ft 470 kts 140°
2026-05-03 20:31 47.69949 21.08566 35139 ft 470 kts 140°
2026-05-03 20:31 47.64732 21.14420 35137 ft 470 kts 140°
2026-05-03 20:32 47.59536 21.20236 35143 ft 470 kts 140°
2026-05-03 20:32 47.54281 21.26101 35142 ft 470 kts 140°
2026-05-03 20:33 47.49083 21.31889 35155 ft 471 kts 140°
2026-05-03 20:33 47.43843 21.37709 35145 ft 471 kts 140°
2026-05-03 20:34 47.38596 21.43522 35148 ft 472 kts 140°
2026-05-03 20:34 47.33341 21.49328 35146 ft 472 kts 140°
2026-05-03 20:35 47.28084 21.55122 35147 ft 472 kts 140°
2026-05-03 20:35 47.22826 21.60902 35167 ft 471 kts 140°
2026-05-03 20:36 47.17567 21.66668 35157 ft 471 kts 140°
2026-05-03 20:36 47.12310 21.72418 35151 ft 471 kts 140°
2026-05-03 20:37 47.07056 21.78151 35154 ft 470 kts 140°
2026-05-03 20:37 47.01802 21.83868 35176 ft 470 kts 140°
2026-05-03 20:38 46.96590 21.89526 35156 ft 469 kts 140°
2026-05-03 20:38 46.91343 21.95208 35151 ft 469 kts 140°
2026-05-03 20:39 46.86100 22.00871 35158 ft 469 kts 140°
2026-05-03 20:39 46.80851 22.06527 35158 ft 468 kts 140°
2026-05-03 20:40 46.75600 22.12171 35169 ft 468 kts 139°
2026-05-03 20:40 46.70353 22.17797 35165 ft 468 kts 139°
2026-05-03 20:41 46.65105 22.23411 35166 ft 468 kts 139°
2026-05-03 20:41 46.59843 22.29025 35173 ft 468 kts 140°
2026-05-03 20:42 46.54583 22.34623 35199 ft 469 kts 139°
2026-05-03 20:42 46.49321 22.40209 35183 ft 468 kts 139°
2026-05-03 20:43 46.44054 22.45787 35184 ft 469 kts 139°
2026-05-03 20:43 46.38792 22.51345 35177 ft 468 kts 139°
2026-05-03 20:44 46.33533 22.56888 35185 ft 467 kts 139°
2026-05-03 20:44 46.28313 22.62376 35193 ft 467 kts 139°
2026-05-03 20:45 46.23058 22.67888 35191 ft 466 kts 139°
2026-05-03 20:45 46.17800 22.73390 35192 ft 467 kts 139°
2026-05-03 20:46 46.12539 22.78881 35200 ft 467 kts 139°
2026-05-03 20:46 46.07272 22.84366 35213 ft 468 kts 139°
2026-05-03 20:47 46.01993 22.89849 35201 ft 468 kts 139°
2026-05-03 20:47 45.96702 22.95332 35188 ft 469 kts 139°
2026-05-03 20:48 45.91405 23.00807 35197 ft 469 kts 139°
2026-05-03 20:48 45.86111 23.06266 35229 ft 468 kts 139°
2026-05-03 20:49 45.80810 23.11720 35196 ft 469 kts 139°
2026-05-03 20:49 45.75500 23.17171 35198 ft 469 kts 139°
2026-05-03 20:50 45.70191 23.22606 35202 ft 469 kts 139°
2026-05-03 20:50 45.64882 23.28029 35194 ft 469 kts 139°
2026-05-03 20:51 45.59564 23.33449 35211 ft 469 kts 139°
2026-05-03 20:51 45.54242 23.38859 35200 ft 470 kts 139°
2026-05-03 20:52 45.48949 23.44228 35191 ft 470 kts 139°
2026-05-03 20:52 45.43612 23.49628 35203 ft 471 kts 139°
2026-05-03 20:53 45.38257 23.55033 35195 ft 472 kts 139°
2026-05-03 20:53 45.32894 23.60435 35194 ft 473 kts 139°
2026-05-03 20:54 45.27532 23.65822 35207 ft 473 kts 139°
2026-05-03 20:54 45.19464 23.73902 35213 ft 473 kts 139°
2026-05-03 20:55 45.14082 23.79276 35218 ft 473 kts 139°
2026-05-03 20:55 45.08698 23.84641 35230 ft 473 kts 139°
2026-05-03 20:56 45.03314 23.89993 35226 ft 473 kts 139°
2026-05-03 20:56 44.97930 23.95332 35252 ft 473 kts 139°
2026-05-03 20:57 44.92539 24.00667 35248 ft 474 kts 138°
2026-05-03 20:57 44.87130 24.06008 35269 ft 475 kts 138°
2026-05-03 20:58 44.81712 24.11343 35283 ft 475 kts 139°
2026-05-03 20:58 44.76277 24.16683 35435 ft 477 kts 139°
2026-05-03 20:59 44.74477 24.18449 35619 ft 477 kts 139°
2026-05-03 20:59 44.70846 24.22004 35958 ft 474 kts 139°
2026-05-03 20:59 44.69055 24.23756 36130 ft 472 kts 139°
2026-05-03 20:59 44.66359 24.26390 36338 ft 471 kts 139°
2026-05-03 21:00 44.63668 24.29019 36513 ft 472 kts 139°
2026-05-03 21:00 44.61884 24.30761 36601 ft 472 kts 139°
2026-05-03 21:00 44.57400 24.35132 36855 ft 472 kts 140°
2026-05-03 21:00 44.54706 24.37753 37049 ft 471 kts 140°
2026-05-03 21:01 44.52885 24.39523 37154 ft 471 kts 140°
2026-05-03 21:01 44.50207 24.42121 37294 ft 461 kts 140°
2026-05-03 21:01 44.45012 24.47153 37322 ft 457 kts 140°
2026-05-03 21:02 44.39756 24.52245 37344 ft 462 kts 140°
2026-05-03 21:02 44.34440 24.57380 37332 ft 467 kts 141°
2026-05-03 21:03 44.29074 24.62548 37355 ft 470 kts 141°
2026-05-03 21:03 44.23630 24.67640 37335 ft 473 kts 144°
2026-05-03 21:04 44.17976 24.72380 37328 ft 475 kts 145°
2026-05-03 21:04 44.12280 24.77037 37326 ft 474 kts 145°
2026-05-03 21:05 44.06611 24.81708 37337 ft 473 kts 145°
2026-05-03 21:05 44.00967 24.86390 37326 ft 472 kts 145°
2026-05-03 21:06 43.95345 24.91056 37329 ft 470 kts 145°
2026-05-03 21:06 43.89740 24.95698 37337 ft 468 kts 145°
2026-05-03 21:07 43.84150 25.00315 37333 ft 467 kts 146°
2026-05-03 21:07 43.78614 25.04877 37339 ft 465 kts 146°
2026-05-03 21:08 43.73082 25.09424 37291 ft 455 kts 146°
2026-05-03 21:08 43.70398 25.11622 37311 ft 442 kts 146°
2026-05-03 21:08 43.67763 25.13781 37328 ft 440 kts 146°
2026-05-03 21:09 43.62460 25.18129 37336 ft 446 kts 146°
2026-05-03 21:09 43.57049 25.22559 37049 ft 459 kts 146°
2026-05-03 21:10 43.51537 25.27054 37113 ft 463 kts 146°
2026-05-03 21:10 43.45961 25.31589 37095 ft 468 kts 146°
2026-05-03 21:11 43.40336 25.36154 37127 ft 472 kts 147°
2026-05-03 21:11 43.34661 25.40751 37069 ft 474 kts 147°
2026-05-03 21:12 43.29009 25.45316 37016 ft 468 kts 147°
2026-05-03 21:12 43.23430 25.49813 37010 ft 463 kts 147°
2026-05-03 21:13 43.17885 25.54276 36975 ft 461 kts 147°
2026-05-03 21:13 43.12394 25.58686 36974 ft 461 kts 147°
2026-05-03 21:14 43.06859 25.63124 36973 ft 462 kts 147°
2026-05-03 21:14 43.01309 25.67562 36990 ft 463 kts 147°
2026-05-03 21:15 42.95736 25.72010 37009 ft 465 kts 147°
2026-05-03 21:15 42.90131 25.76474 37039 ft 467 kts 147°
2026-05-03 21:16 42.84496 25.80951 37046 ft 469 kts 147°
2026-05-03 21:16 42.78842 25.85433 37049 ft 470 kts 147°
2026-05-03 21:17 42.74137 25.89157 37040 ft 471 kts 147°
2026-05-03 21:17 42.67505 25.94394 37035 ft 471 kts 148°
2026-05-03 21:18 42.61835 25.98861 37003 ft 470 kts 148°
2026-05-03 21:18 42.56180 26.03307 36980 ft 469 kts 148°
2026-05-03 21:19 42.50568 26.07709 36975 ft 468 kts 148°
2026-05-03 21:19 42.44935 26.12120 36953 ft 468 kts 148°
2026-05-03 21:20 42.39304 26.16518 36941 ft 467 kts 148°
2026-05-03 21:20 42.33672 26.20909 36945 ft 466 kts 148°
2026-05-03 21:21 42.28053 26.25281 36939 ft 466 kts 148°
2026-05-03 21:21 42.22437 26.29641 36945 ft 465 kts 149°
2026-05-03 21:22 42.16821 26.33992 36939 ft 465 kts 149°
2026-05-03 21:22 42.11217 26.38325 36939 ft 464 kts 149°
2026-05-03 21:23 42.05619 26.42645 36938 ft 463 kts 149°
2026-05-03 21:23 42.00037 26.46943 36937 ft 462 kts 149°
2026-05-03 21:24 41.94466 26.51226 36928 ft 460 kts 149°
2026-05-03 21:24 41.88913 26.55486 36929 ft 459 kts 149°
2026-05-03 21:25 41.83560 26.60093 36938 ft 456 kts 143°
2026-05-03 21:25 41.78434 26.65016 36921 ft 456 kts 143°
2026-05-03 21:26 41.73293 26.69940 37038 ft 452 kts 143°
2026-05-03 21:26 41.68127 26.74829 36921 ft 455 kts 143°
2026-05-03 21:27 41.62950 26.79701 36918 ft 455 kts 143°
2026-05-03 21:27 41.57757 26.84576 36913 ft 456 kts 143°
2026-05-03 21:28 41.52562 26.89447 36912 ft 457 kts 143°
2026-05-03 21:28 41.47357 26.94317 36903 ft 457 kts 144°
2026-05-03 21:29 41.42177 26.99147 36893 ft 457 kts 144°
2026-05-03 21:29 41.36963 27.03995 36891 ft 457 kts 144°
2026-05-03 21:30 41.31741 27.08844 36892 ft 457 kts 144°
2026-05-03 21:30 41.26527 27.13678 36883 ft 457 kts 144°
2026-05-03 21:31 41.21307 27.18506 36890 ft 457 kts 144°
2026-05-03 21:31 41.16088 27.23321 36879 ft 457 kts 144°
2026-05-03 21:32 41.10866 27.28129 36874 ft 457 kts 144°
2026-05-03 21:32 41.05635 27.32938 36873 ft 457 kts 144°
2026-05-03 21:33 41.00414 27.37731 36867 ft 457 kts 144°
2026-05-03 21:33 40.95178 27.42521 36863 ft 457 kts 144°
2026-05-03 21:34 40.89746 27.46881 36861 ft 458 kts 149°
2026-05-03 21:34 40.84183 27.50990 36854 ft 457 kts 149°
2026-05-03 21:35 40.78645 27.55100 36849 ft 456 kts 149°
2026-05-03 21:35 40.73167 27.59218 36839 ft 456 kts 149°
2026-05-03 21:36 40.67662 27.63374 36844 ft 456 kts 149°
2026-05-03 21:36 40.62139 27.67538 36842 ft 457 kts 149°
2026-05-03 21:37 40.56613 27.71694 36820 ft 458 kts 149°
2026-05-03 21:37 40.51076 27.75849 36867 ft 457 kts 148°
2026-05-03 21:38 40.48327 27.77908 36988 ft 453 kts 148°
2026-05-03 21:38 40.45591 27.79956 37007 ft 455 kts 149°
2026-05-03 21:38 40.40062 27.84090 37019 ft 459 kts 149°
2026-05-03 21:39 40.34485 27.88252 37012 ft 463 kts 149°
2026-05-03 21:39 40.28866 27.92436 37020 ft 465 kts 149°
2026-05-03 21:40 40.23226 27.96628 37001 ft 467 kts 149°
2026-05-03 21:40 40.17619 28.00787 37010 ft 466 kts 149°
2026-05-03 21:41 40.11975 28.04966 36997 ft 465 kts 149°
2026-05-03 21:41 40.06349 28.09124 37009 ft 464 kts 149°
2026-05-03 21:42 40.00727 28.13272 36986 ft 463 kts 150°
2026-05-03 21:42 39.95126 28.17396 36991 ft 462 kts 149°
2026-05-03 21:43 39.89528 28.21497 36989 ft 461 kts 149°
2026-05-03 21:43 39.83943 28.25564 36989 ft 460 kts 149°
2026-05-03 21:44 39.78357 28.29627 36981 ft 459 kts 150°
2026-05-03 21:44 39.72785 28.33675 36979 ft 459 kts 150°
2026-05-03 21:45 39.67202 28.37725 36963 ft 460 kts 150°
2026-05-03 21:45 39.61607 28.41776 36961 ft 461 kts 150°
2026-05-03 21:46 39.55998 28.45829 36950 ft 462 kts 150°
2026-05-03 21:46 39.50372 28.49887 36945 ft 464 kts 150°
2026-05-03 21:47 39.44721 28.53955 36941 ft 465 kts 150°
2026-05-03 21:47 39.39091 28.58001 36916 ft 466 kts 150°
2026-05-03 21:48 39.33411 28.62075 36921 ft 468 kts 150°
2026-05-03 21:48 39.27713 28.66154 36898 ft 469 kts 150°
2026-05-03 21:49 39.22970 28.69544 36913 ft 469 kts 151°
2026-05-03 21:49 39.17214 28.73652 36891 ft 469 kts 151°
2026-05-03 21:50 39.11534 28.77698 36880 ft 469 kts 151°
2026-05-03 21:50 39.05815 28.81765 36872 ft 469 kts 151°
2026-05-03 21:51 39.00110 28.85824 36868 ft 469 kts 151°
2026-05-03 21:51 38.94405 28.89880 36848 ft 468 kts 151°
2026-05-03 21:52 38.88705 28.93924 36839 ft 468 kts 151°
2026-05-03 21:52 38.83013 28.97954 36848 ft 467 kts 151°
2026-05-03 21:53 38.77322 29.01977 36825 ft 467 kts 151°
2026-05-03 21:53 38.71633 29.05990 36829 ft 466 kts 152°
2026-05-03 21:54 38.65954 29.09991 36846 ft 466 kts 152°
2026-05-03 21:54 38.60296 29.13968 36817 ft 467 kts 152°
2026-05-03 21:55 38.54608 29.17961 36815 ft 467 kts 152°
2026-05-03 21:55 38.48904 29.21959 36834 ft 468 kts 152°
2026-05-03 21:56 38.43189 29.25960 36827 ft 469 kts 152°
2026-05-03 21:56 38.37460 29.29962 36813 ft 470 kts 152°
2026-05-03 21:57 38.31728 29.33959 36809 ft 470 kts 152°
2026-05-03 21:57 38.25977 29.37963 36801 ft 471 kts 153°
2026-05-03 21:58 38.20212 29.41969 36818 ft 472 kts 153°
2026-05-03 21:58 38.14446 29.45968 36806 ft 472 kts 153°
2026-05-03 21:59 38.11551 29.47973 36499 ft 478 kts 153°
2026-05-03 21:59 38.08618 29.50002 35954 ft 479 kts 153°
2026-05-03 21:59 38.05703 29.52018 35328 ft 478 kts 153°
2026-05-03 21:59 38.02775 29.54040 34666 ft 480 kts 152°
2026-05-03 22:00 37.99836 29.56069 33980 ft 482 kts 152°
2026-05-03 22:00 37.96914 29.58084 33190 ft 484 kts 151°
2026-05-03 22:00 37.93952 29.60124 32414 ft 484 kts 150°
2026-05-03 22:00 37.91001 29.62156 31674 ft 483 kts 150°
2026-05-03 22:01 37.88055 29.64182 31029 ft 480 kts 150°
2026-05-03 22:01 37.85116 29.66203 30168 ft 482 kts 150°
2026-05-03 22:01 37.82181 29.68217 29415 ft 478 kts 149°
2026-05-03 22:01 37.79314 29.70375 28415 ft 478 kts 143°
2026-05-03 22:02 37.76743 29.73006 27542 ft 475 kts 133°
2026-05-03 22:02 37.74424 29.75968 26686 ft 473 kts 131°
2026-05-03 22:02 37.72126 29.78957 25777 ft 474 kts 131°
2026-05-03 22:02 37.69824 29.81934 24952 ft 473 kts 131°
2026-05-03 22:03 37.67527 29.84868 24355 ft 467 kts 131°
2026-05-03 22:03 37.65237 29.87767 23700 ft 464 kts 131°
2026-05-03 22:03 37.62962 29.90629 22992 ft 460 kts 131°
2026-05-03 22:03 37.60710 29.93457 22258 ft 455 kts 131°
2026-05-03 22:04 37.58506 29.96224 21627 ft 449 kts 131°
2026-05-03 22:04 37.56306 29.98983 20994 ft 444 kts 132°
2026-05-03 22:04 37.54136 30.01720 20341 ft 439 kts 131°
2026-05-03 22:04 37.51994 30.04454 19695 ft 436 kts 132°
2026-05-03 22:05 37.49834 30.07109 19050 ft 433 kts 137°
2026-05-03 22:05 37.47394 30.09304 18441 ft 432 kts 148°
2026-05-03 22:05 37.44807 30.11201 17816 ft 428 kts 148°
2026-05-03 22:05 37.42257 30.13084 17126 ft 419 kts 149°
2026-05-03 22:06 37.39794 30.14917 16530 ft 404 kts 149°
2026-05-03 22:06 37.37410 30.16703 15937 ft 392 kts 149°
2026-05-03 22:06 37.35093 30.18446 15347 ft 383 kts 149°
2026-05-03 22:06 37.32838 30.20145 14849 ft 373 kts 149°
2026-05-03 22:07 37.30658 30.21790 14460 ft 361 kts 149°
2026-05-03 22:07 37.28526 30.23397 13962 ft 354 kts 149°
2026-05-03 22:07 37.26427 30.24979 13434 ft 349 kts 149°
2026-05-03 22:07 37.24353 30.26540 12874 ft 345 kts 149°
2026-05-03 22:08 37.22303 30.28083 12335 ft 342 kts 150°
2026-05-03 22:08 37.20273 30.29609 11809 ft 338 kts 150°
2026-05-03 22:08 37.18264 30.31118 11313 ft 335 kts 150°
2026-05-03 22:08 37.16299 30.32594 11184 ft 325 kts 150°
2026-05-03 22:09 37.14327 30.34073 11056 ft 337 kts 150°
2026-05-03 22:09 37.12322 30.35575 10908 ft 342 kts 150°
2026-05-03 22:09 37.10261 30.37119 10749 ft 340 kts 150°
2026-05-03 22:10 37.06305 30.40083 10441 ft 318 kts 150°
2026-05-03 22:10 37.04446 30.41476 10290 ft 305 kts 150°
2026-05-03 22:10 37.02649 30.42821 10172 ft 298 kts 150°
2026-05-03 22:10 37.00864 30.44154 10068 ft 300 kts 150°
2026-05-03 22:11 36.99083 30.45482 9905 ft 305 kts 150°
2026-05-03 22:11 36.97250 30.46849 9598 ft 307 kts 150°
2026-05-03 22:11 36.95426 30.48210 9256 ft 302 kts 150°
2026-05-03 22:11 36.93649 30.49536 8949 ft 293 kts 151°
2026-05-03 22:12 36.91922 30.50823 8651 ft 285 kts 151°
2026-05-03 22:12 36.90246 30.52072 8359 ft 277 kts 151°
2026-05-03 22:12 36.88615 30.53286 8097 ft 269 kts 151°
2026-05-03 22:12 36.87024 30.54470 7817 ft 262 kts 151°
2026-05-03 22:13 36.85482 30.55616 7566 ft 259 kts 151°
2026-05-03 22:13 36.83934 30.56766 7332 ft 260 kts 151°
2026-05-03 22:13 36.82356 30.57937 7084 ft 269 kts 150°
2026-05-03 22:13 36.80707 30.59160 6615 ft 282 kts 150°
2026-05-03 22:14 36.79034 30.60402 6245 ft 278 kts 150°
2026-05-03 22:14 36.77394 30.61620 5948 ft 271 kts 150°
2026-05-03 22:14 36.75799 30.62804 5673 ft 263 kts 150°
2026-05-03 22:14 36.74249 30.63953 5450 ft 254 kts 150°
2026-05-03 22:15 36.72760 30.65057 5285 ft 243 kts 150°
2026-05-03 22:15 36.71350 30.66101 5183 ft 229 kts 150°
2026-05-03 22:15 36.70032 30.67077 5111 ft 212 kts 150°
2026-05-03 22:15 36.68790 30.67995 5053 ft 205 kts 151°
2026-05-03 22:16 36.67577 30.68892 4985 ft 201 kts 150°
2026-05-03 22:16 36.66372 30.69782 4902 ft 201 kts 150°
2026-05-03 22:16 36.65166 30.70676 4775 ft 204 kts 148°
2026-05-03 22:16 36.64236 30.71962 4539 ft 201 kts 107°
2026-05-03 22:17 36.64201 30.73640 4370 ft 195 kts 68°
2026-05-03 22:17 36.64945 30.74991 4186 ft 189 kts 35°
2026-05-03 22:17 36.66091 30.75767 4005 ft 189 kts 22°
2026-05-03 22:17 36.67290 30.76453 3802 ft 189 kts 22°
2026-05-03 22:18 36.68450 30.77120 3575 ft 182 kts 22°
2026-05-03 22:18 36.69565 30.77761 3381 ft 171 kts 22°
2026-05-03 22:18 36.70651 30.78229 3194 ft 160 kts
2026-05-03 22:18 36.71764 30.78449 3051 ft 165 kts
2026-05-03 22:19 36.72867 30.78619 2878 ft 152 kts
2026-05-03 22:19 36.73869 30.78762 2698 ft 137 kts
2026-05-03 22:19 36.74803 30.78892 2588 ft 138 kts
2026-05-03 22:19 36.75746 30.79022 2426 ft 135 kts
2026-05-03 22:20 36.76663 30.79149 2276 ft 132 kts
2026-05-03 22:20 36.77579 30.79274 2151 ft 132 kts
2026-05-03 22:20 36.78489 30.79400 2070 ft 134 kts
2026-05-03 22:20 36.79421 30.79528 1893 ft 133 kts
2026-05-03 22:21 36.80328 30.79654 1714 ft 131 kts
2026-05-03 22:21 36.81230 30.79778 1537 ft 129 kts
2026-05-03 22:21 36.82123 30.79901 1377 ft 129 kts
2026-05-03 22:21 36.83025 30.80025 1188 ft 131 kts
2026-05-03 22:22 36.83914 30.80148 1017 ft 128 kts
2026-05-03 22:22 36.84804 30.80270 868 ft 130 kts
2026-05-03 22:22 36.85714 30.80395 691 ft 132 kts
2026-05-03 22:22 36.86634 30.80523 513 ft 133 kts
2026-05-03 22:23 36.87538 30.80647 338 ft 129 kts
2026-05-03 22:23 36.88439 30.80771 212 ft 132 kts
2026-05-03 22:23 36.89240 30.80872 188 ft 95 kts
2026-05-03 22:23 36.89731 30.80942 186 ft 37 kts
2026-05-03 22:24 36.89908 30.80930 200 ft 21 kts 348°
2026-05-03 22:24 36.90031 30.80872 194 ft 14 kts 337°
2026-05-03 22:24 36.90071 30.80849 200 ft 0 kts 334°
2026-05-03 22:26 36.90083 30.80832 199 ft 6 kts 297°
2026-05-03 22:26 36.90077 30.80784 197 ft 6 kts 232°
2026-05-03 22:26 36.90042 30.80761 191 ft 6 kts 195°
2026-05-03 22:27 36.90000 30.80753 191 ft 7 kts 186°
2026-05-03 22:27 36.89923 30.80743 192 ft 16 kts 186°
2026-05-03 22:27 36.89806 30.80728 191 ft 7 kts 186°
2026-05-03 22:27 36.89760 30.80722 191 ft 7 kts 186°
2026-05-03 22:28 36.89721 30.80699 191 ft 7 kts 237°
2026-05-03 22:28 36.89728 30.80643 203 ft 7 kts 284°
2026-05-03 22:28 36.89738 30.80586 195 ft 7 kts 278°
2026-05-03 22:28 36.89744 30.80530 191 ft 6 kts 277°
2026-05-03 22:29 36.89749 30.80473 191 ft 7 kts 277°
2026-05-03 22:29 36.89764 30.80412 199 ft 8 kts 293°
2026-05-03 22:29 36.89786 30.80349 193 ft 8 kts 295°
2026-05-03 22:29 36.89806 30.80294 194 ft 0 kts 293°
2026-05-03 22:30 36.89813 30.80274 197 ft 5 kts 292°
2026-05-03 22:30 36.89817 30.80260 194 ft 2 kts 291°
2026-05-03 22:30 36.89821 30.80248 195 ft 0 kts 290°